When you browse on this site, cookies collect data to enhance your experience and personalize the content and advertising you see.
Visit our Privacy Policy to learn more. By continuing to use the site, you agree to this use of cookies and data.
  • în România
  • Lista ţărilor
  • Pe 7 zile
  • Temperatura apei
  • Meteo pe hartă
  • Widget-uri
  • user-avatar
    Intrare

    Meteo pe oră la Vlorë

    Astăzi, 9 Decembrie, Luni

    Timp Temperatura Precipitaţii Vânt Presiune Umiditate
    00:00 +13°C° 0 mm 1 m/s 763 mmHg 74%
    01:00 +13°C° 0 mm 1 m/s 763 mmHg 72%
    02:00 +12°C° 0 mm 1 m/s 762 mmHg 72%
    03:00 +12°C° 0 mm 1 m/s 762 mmHg 72%
    04:00 +12°C° 0 mm 1 m/s 761 mmHg 71%
    05:00 +12°C° 0 mm 2 m/s 761 mmHg 73%
    06:00 +12°C° 0 mm 2 m/s 761 mmHg 74%
    07:00 +11°C° 0 mm 3 m/s 761 mmHg 75%
    08:00 +12°C° 0 mm 3 m/s 761 mmHg 73%
    09:00 +14°C° 0 mm 4 m/s 760 mmHg 72%
    10:00 +15°C° 0 mm 5 m/s 760 mmHg 70%
    11:00 +15°C° 0 mm 5 m/s 759 mmHg 68%
    12:00 +16°C° 0 mm 6 m/s 759 mmHg 66%
    13:00 +16°C° 0 mm 6 m/s 758 mmHg 64%
    14:00 +16°C° 0.1 mm 7 m/s 758 mmHg 68%
    15:00 +15°C° 0.1 mm 7 m/s 757 mmHg 72%
    16:00 +14°C° 0.1 mm 7 m/s 757 mmHg 76%
    17:00 +14°C° 0.3 mm 7 m/s 757 mmHg 77%
    18:00 +14°C° 0.3 mm 7 m/s 757 mmHg 78%
    19:00 +14°C° 0.3 mm 7 m/s 756 mmHg 79%
    20:00 +14°C° 0.6 mm 7 m/s 756 mmHg 80%
    21:00 +14°C° 0.6 mm 7 m/s 756 mmHg 82%
    22:00 +14°C° 0.6 mm 7 m/s 756 mmHg 84%
    23:00 +13°C° 1.5 mm 6 m/s 756 mmHg 86%

    Mâine, 10 Decembrie, Marţi

    Timp Temperatura Precipitaţii Vânt Presiune Umiditate
    00:00 +13°C° 1.5 mm 6 m/s 756 mmHg 88%
    01:00 +12°C° 1.5 mm 5 m/s 755 mmHg 91%
    02:00 +12°C° 1.9 mm 4 m/s 755 mmHg 91%
    03:00 +12°C° 1.9 mm 4 m/s 755 mmHg 92%
    04:00 +12°C° 1.9 mm 3 m/s 754 mmHg 93%
    05:00 +12°C° 0.3 mm 3 m/s 754 mmHg 90%
    06:00 +12°C° 0.3 mm 3 m/s 754 mmHg 88%
    07:00 +12°C° 0.3 mm 3 m/s 755 mmHg 86%
    08:00 +12°C° 0.2 mm 3 m/s 755 mmHg 82%
    09:00 +13°C° 0.2 mm 3 m/s 755 mmHg 79%
    10:00 +15°C° 0.2 mm 2 m/s 755 mmHg 76%
    11:00 +14°C° 0 mm 3 m/s 755 mmHg 74%
    12:00 +14°C° 0 mm 3 m/s 754 mmHg 73%
    13:00 +14°C° 0 mm 3 m/s 754 mmHg 72%
    14:00 +14°C° 0 mm 3 m/s 754 mmHg 75%
    15:00 +13°C° 0 mm 3 m/s 753 mmHg 77%
    16:00 +13°C° 0 mm 4 m/s 753 mmHg 80%
    17:00 +12°C° 0 mm 4 m/s 753 mmHg 80%
    18:00 +12°C° 0 mm 4 m/s 753 mmHg 81%
    19:00 +12°C° 0 mm 4 m/s 753 mmHg 82%
    20:00 +12°C° 0.1 mm 4 m/s 754 mmHg 83%
    21:00 +12°C° 0.1 mm 4 m/s 754 mmHg 83%
    22:00 +12°C° 0.1 mm 4 m/s 754 mmHg 84%
    23:00 +12°C° 0.4 mm 5 m/s 754 mmHg 84%

    Poimâine, 11 Decembrie, Miercuri

    Timp Temperatura Precipitaţii Vânt Presiune Umiditate
    00:00 +10°C° 0.4 mm 5 m/s 754 mmHg 84%
    01:00 +10°C° 0.4 mm 5 m/s 754 mmHg 84%
    02:00 +10°C° 0.2 mm 5 m/s 754 mmHg 84%
    03:00 +11°C° 0.2 mm 4 m/s 754 mmHg 84%
    04:00 +10°C° 0.2 mm 4 m/s 754 mmHg 84%
    05:00 +9°C° 0 mm 5 m/s 754 mmHg 82%
    06:00 +9°C° 0 mm 5 m/s 754 mmHg 81%
    07:00 +9°C° 0 mm 6 m/s 754 mmHg 80%
    08:00 +10°C° 0 mm 6 m/s 755 mmHg 77%
    09:00 +11°C° 0 mm 6 m/s 755 mmHg 73%
    10:00 +13°C° 0 mm 6 m/s 756 mmHg 69%
    11:00 +13°C° 0 mm 5 m/s 756 mmHg 65%
    12:00 +14°C° 0 mm 5 m/s 755 mmHg 62%
    13:00 +15°C° 0 mm 5 m/s 755 mmHg 58%
    14:00 +14°C° 0 mm 5 m/s 755 mmHg 62%
    15:00 +13°C° 0 mm 5 m/s 756 mmHg 65%
    16:00 +11°C° 0 mm 6 m/s 756 mmHg 68%
    17:00 +11°C° 0 mm 6 m/s 756 mmHg 69%
    18:00 +10°C° 0 mm 6 m/s 756 mmHg 71%
    19:00 +10°C° 0 mm 6 m/s 757 mmHg 72%
    20:00 +9°C° 0 mm 6 m/s 757 mmHg 72%
    21:00 +9°C° 0 mm 6 m/s 757 mmHg 72%
    22:00 +9°C° 0 mm 5 m/s 757 mmHg 73%
    23:00 +9°C° 0 mm 5 m/s 757 mmHg 72%

    12 Decembrie, Joi

    Timp Temperatura Precipitaţii Vânt Presiune Umiditate
    00:00 +8°C° 0 mm 5 m/s 757 mmHg 72%
    01:00 +8°C° 0 mm 5 m/s 756 mmHg 72%
    02:00 +8°C° 0 mm 5 m/s 756 mmHg 72%
    03:00 +8°C° 0 mm 5 m/s 756 mmHg 72%
    04:00 +8°C° 0 mm 5 m/s 756 mmHg 72%
    05:00 +8°C° 0 mm 4 m/s 756 mmHg 72%
    06:00 +8°C° 0 mm 4 m/s 756 mmHg 72%
    07:00 +8°C° 0 mm 4 m/s 757 mmHg 72%
    08:00 +10°C° 0 mm 4 m/s 757 mmHg 70%
    09:00 +11°C° 0 mm 3 m/s 757 mmHg 68%
    10:00 +12°C° 0 mm 3 m/s 757 mmHg 65%
    11:00 +12°C° 0 mm 4 m/s 757 mmHg 66%
    12:00 +12°C° 0 mm 4 m/s 756 mmHg 67%
    13:00 +13°C° 0 mm 4 m/s 756 mmHg 68%
    14:00 +12°C° 0 mm 3 m/s 756 mmHg 70%
    15:00 +12°C° 0 mm 3 m/s 756 mmHg 73%
    16:00 +12°C° 0 mm 2 m/s 756 mmHg 75%
    17:00 +12°C° 0 mm 2 m/s 756 mmHg 75%
    18:00 +12°C° 0 mm 2 m/s 756 mmHg 76%
    19:00 +12°C° 0 mm 2 m/s 756 mmHg 76%
    20:00 +12°C° 0.1 mm 2 m/s 756 mmHg 78%
    21:00 +10°C° 0.1 mm 2 m/s 756 mmHg 79%
    22:00 +10°C° 0.1 mm 2 m/s 756 mmHg 81%
    23:00 +11°C° 0 mm 1 m/s 756 mmHg 80%

    13 Decembrie, Vineri

    Timp Temperatura Precipitaţii Vânt Presiune Umiditate
    00:00 +11°C° 0 mm 1 m/s 756 mmHg 80%
    01:00 +12°C° 0 mm 1 m/s 756 mmHg 79%
    02:00 +11°C° 0.1 mm 1 m/s 756 mmHg 79%
    03:00 +11°C° 0.1 mm 1 m/s 755 mmHg 79%
    04:00 +10°C° 0.1 mm 1 m/s 755 mmHg 80%
    05:00 +9°C° 0.3 mm 2 m/s 755 mmHg 79%
    06:00 +10°C° 0.3 mm 2 m/s 755 mmHg 78%
    07:00 +10°C° 0.3 mm 2 m/s 756 mmHg 78%
    08:00 +10°C° 0.3 mm 2 m/s 756 mmHg 77%
    09:00 +12°C° 0.3 mm 2 m/s 756 mmHg 77%
    10:00 +12°C° 0.3 mm 2 m/s 756 mmHg 76%
    11:00 +12°C° 0.1 mm 3 m/s 756 mmHg 74%
    12:00 +12°C° 0.1 mm 3 m/s 756 mmHg 72%
    13:00 +13°C° 0.1 mm 3 m/s 755 mmHg 69%
    14:00 +12°C° 0 mm 3 m/s 755 mmHg 73%
    15:00 +12°C° 0 mm 3 m/s 755 mmHg 76%
    16:00 +11°C° 0 mm 3 m/s 755 mmHg 79%
    17:00 +11°C° 0 mm 3 m/s 755 mmHg 79%
    18:00 +11°C° 0 mm 3 m/s 755 mmHg 79%
    19:00 +11°C° 0 mm 3 m/s 755 mmHg 80%
    20:00 +11°C° 0 mm 4 m/s 755 mmHg 79%
    21:00 +10°C° 0 mm 5 m/s 755 mmHg 78%
    22:00 +10°C° 0 mm 6 m/s 754 mmHg 77%
    23:00 +10°C° 0.3 mm 7 m/s 754 mmHg 79%

    14 Decembrie, Sâmbătă

    Timp Temperatura Precipitaţii Vânt Presiune Umiditate
    00:00 +10°C° 0.3 mm 7 m/s 754 mmHg 81%
    01:00 +10°C° 0.3 mm 7 m/s 754 mmHg 83%
    02:00 +10°C° 0 mm 7 m/s 754 mmHg 82%
    03:00 +11°C° 0 mm 7 m/s 754 mmHg 81%
    04:00 +11°C° 0 mm 6 m/s 753 mmHg 80%
    05:00 +12°C° 0 mm 5 m/s 754 mmHg 81%
    06:00 +12°C° 0 mm 4 m/s 754 mmHg 81%
    07:00 +13°C° 0 mm 3 m/s 755 mmHg 82%
    08:00 +14°C° 0 mm 3 m/s 755 mmHg 79%
    09:00 +16°C° 0 mm 3 m/s 756 mmHg 76%
    10:00 +17°C° 0 mm 3 m/s 757 mmHg 73%
    11:00 +17°C° 0 mm 3 m/s 757 mmHg 70%
    12:00 +17°C° 0 mm 4 m/s 757 mmHg 68%
    13:00 +18°C° 0 mm 4 m/s 757 mmHg 66%
    14:00 +17°C° 0 mm 4 m/s 757 mmHg 70%
    15:00 +15°C° 0 mm 4 m/s 757 mmHg 75%
    16:00 +15°C° 0 mm 4 m/s 758 mmHg 80%
    17:00 +14°C° 0 mm 4 m/s 758 mmHg 80%
    18:00 +14°C° 0 mm 4 m/s 759 mmHg 80%
    19:00 +14°C° 0 mm 3 m/s 760 mmHg 80%
    20:00 +14°C° 0 mm 3 m/s 760 mmHg 81%
    21:00 +13°C° 0 mm 3 m/s 761 mmHg 82%
    22:00 +13°C° 0 mm 3 m/s 761 mmHg 82%
    23:00 +13°C° 0 mm 3 m/s 762 mmHg 83%
    Arată mai mult